Regional Weather Roundup
Issued by NWS Tiyan, Guam

Home | Current Version | Previous Version | Text Only | Print | Product List | Glossary On
Versions: 1 2 3 4 5 6 7 8 9 10 11 12 13 14 15 16 17 18 19 20 21 22
000
ASGM40 PGUM 061512
RWRGUM
WEATHER ROUNDUP FOR THE MARIANAS
NATIONAL WEATHER SERVICE TIYAN GU
100 AM CHST WED DEC 07 2016

GUZ001>004-061600-
MARIANA ISLANDS-

CITY           SKY/WX    TMP DP  RH WIND       PRES   REMARKS
GUAM AIRPORT   PTCLDY    81  79  94 E8        29.86F
ANDERSEN AFB   NOT AVBL
ROTA AIRPORT   NOT AVBL
TINIAN AP      NOT AVBL
SAIPAN AP      MOCLDY    81  77  89 E15       29.87F

$$





USA.gov is the U.S. government's official web portal to all federal, state and local government web resources and services.